Location: Aufkirchen
(47.9603°N, 11.3653°E)
Time: 16:23:18
(UTC+01:00)

Transit 2A - Pass Details

Date: 29 November 2020
Orbit: 599 x 960 km, 66.7° (Epoch: 26 January)

Event Time Altitude Azimuth Distance (km) Brightness Sun altitude
Rises 19:51:29 0° 265° (W) 3,602 10.5 -33.9°
Reaches altitude 10° 19:54:46 10° 281° (W) 2,623 9.6 -34.4°
Maximum altitude 19:59:18 21° 329° (NNW) 1,888 8.3 -35.2°
Enters shadow 20:00:11 20° 341° (NNW) 1,906 8.2 -35.3°
Drops below altitude 10° 20:03:36 10° 17° (NNE) 2,475 - -35.9°
Sets 20:06:37 0° 34° (NE) 3,344 - -36.4°
